FW4237 Weather Reports


time (UTC)temp
F
wind
direction
speed
knots
gust
knots
rain 1hr
in
rain 24hr
in
rain mn
in
humidity
%
barometer
mb
20260510130857 68 280 4.3 6.1 0.00 0.00 0.00 62 1014.6
20260510125857 67 281 2.6 2.6 0.00 0.00 0.00 64 1014.6
20260510124855 67 250 4.3 5.2 0.00 0.00 0.00 66 1014.6
20260510123854 66 298 2.6 2.6 0.00 0.00 0.00 66 1014.6
20260510122852 65 300 4.3 6.1 0.00 0.00 0.00 68 1014.2
20260510121850 64 285 3.5 5.2 0.00 0.00 0.00 70 1014.2
20260510120850 63 239 4.3 6.1 0.00 0.00 0.00 71 1014.6
20260510115848 63 262 2.6 2.6 0.00 0.00 0.00 73 1014.2
20260510114847 62 272 2.6 4.3 0.00 0.00 0.00 75 1013.9
20260510113844 60 278 2.6 2.6 0.00 0.00 0.00 77 1014.2
20260510112844 59 280 1.7 2.6 0.00 0.00 0.00 80 1013.6
20260510111843 58 280 1.7 1.7 0.00 0.00 0.00 82 1013.6
20260510110839 55 310 1.7 1.7 0.00 0.00 0.00 88 1013.6
20260510105839 52 312 0.0 0.9 0.00 0.00 0.00 93 1013.2
20260510104835 50 312 0.9 0.9 0.00 0.00 0.00 95 1013.2
20260510103834 50 313 0.0 0.0 0.00 0.00 0.00 95 1012.8
20260510102832 50 313 0.0 0.0 0.00 0.00 0.00 95 1012.8
20260510101832 50 313 0.0 0.0 0.00 0.00 0.00 95 1012.8
20260510100832 51 314 0.0 0.0 0.00 0.00 0.00 95 1012.8
20260510095831 50 314 0.0 0.0 0.00 0.00 0.00 94 1012.4
20260510094826 51 314 0.9 0.9 0.00 0.00 0.00 94 1012.8
20260510093824 51 314 0.9 0.9 0.00 0.00 0.00 93 1012.4
20260510092822 51 314 1.7 1.7 0.00 0.00 0.00 93 1012.4
20260510091820 51 314 1.7 1.7 0.00 0.00 0.00 94 1012.4
20260510090819 51 314 1.7 1.7 0.00 0.00 0.00 94 1012.4
20260510085818 50 314 1.7 1.7 0.00 0.00 0.00 95 1012.1
20260510084814 50 314 0.0 0.0 0.00 0.00 0.00 94 1012.1
20260510083814 50 313 0.0 0.0 0.00 0.00 0.00 94 1012.4
20260510082812 51 313 0.0 0.0 0.00 0.00 0.00 93 1012.4
20260510081808 51 313 0.0 0.0 0.00 0.00 0.00 93 1012.1
20260510080806 51 313 0.0 0.0 0.00 0.00 0.00 92 1011.8
20260510075804 51 313 0.9 0.9 0.00 0.00 0.00 93 1011.4
20260510074804 50 313 0.9 0.9 0.00 0.00 0.00 94 1011.8
20260510073803 50 313 0.0 0.0 0.00 0.00 0.00 94 1011.8
20260510072801 50 313 0.0 0.0 0.00 0.00 0.00 94 1011.8
20260510071800 50 313 0.9 0.9 0.00 0.00 0.00 94 1011.8
20260510070756 50 313 0.9 0.9 0.00 0.00 0.00 93 1011.8
20260510065752 49 312 0.0 0.0 0.00 0.00 0.00 92 1011.4
20260510064751 50 312 0.0 0.0 0.00 0.00 0.00 91 1011.8
20260510063751 50 312 0.9 1.7 0.00 0.00 0.00 93 1011.4
20260510062750 50 312 0.0 0.0 0.00 0.00 0.00 92 1011.8
20260510061747 50 312 0.9 0.9 0.00 0.00 0.00 91 1011.8
20260510060746 51 312 0.0 0.0 0.00 0.00 0.00 89 1011.8
20260510055746 51 312 0.0 0.0 0.00 0.00 0.00 88 1011.8
20260510054743 52 311 0.0 0.0 0.00 0.00 0.00 86 1011.8
20260510053739 53 311 0.0 0.0 0.00 0.00 0.00 85 1011.8
20260510052737 53 311 0.9 1.7 0.00 0.00 0.00 85 1011.8
20260510051735 55 311 0.9 0.9 0.00 0.00 0.00 82 1011.4
20260510050735 55 311 0.0 0.0 0.00 0.00 0.00 81 1011.8
20260510045735 55 311 0.0 0.0 0.00 0.00 0.00 80 1011.8
20260510044734 57 311 0.0 0.0 0.00 0.00 0.00 77 1011.8
20260510043733 58 311 0.0 0.0 0.00 0.00 0.00 73 1011.8
20260510042734 60 309 0.9 0.9 0.00 0.00 0.00 70 1011.8
20260510041732 62 296 0.9 0.9 0.00 0.00 0.00 67 1011.4
20260510040733 64 255 1.7 1.7 0.00 0.00 0.00 62 1011.1
20260510035730 64 284 3.5 4.3 0.00 0.00 0.00 61 1011.1
20260510034728 65 267 3.5 4.3 0.00 0.00 0.00 59 1011.4
20260510033728 64 281 2.6 2.6 0.00 0.00 0.00 62 1011.4
20260510032728 60 279 2.6 2.6 0.00 0.00 0.00 65 1011.1
20260510031725 58 297 0.9 0.9 0.00 0.00 0.00 74 1011.1
20260510030720 58 270 0.9 0.9 0.00 0.00 0.00 72 1011.1
20260510025716 59 274 0.0 0.0 0.00 0.00 0.00 71 1011.1
20260510024716 61 280 0.0 0.9 0.00 0.00 0.00 67 1011.1
20260510023714 63 283 2.6 2.6 0.00 0.00 0.00 61 1011.1
20260510022713 62 308 0.9 0.9 0.00 0.00 0.00 65 1010.8
20260510021708 58 313 4.3 5.2 0.00 0.00 0.00 65 1011.1
20260510020707 56 306 1.7 1.7 0.00 0.00 0.00 78 1010.8
20260510015704 57 306 1.7 1.7 0.00 0.00 0.00 78 1010.8
20260510014701 56 306 0.0 0.0 0.00 0.00 0.00 77 1010.4
20260510013659 57 306 0.0 0.0 0.00 0.00 0.00 78 1010.1
20260510012655 58 306 0.9 1.7 0.00 0.00 0.00 77 1010.1
20260510011652 59 306 0.0 0.0 0.00 0.00 0.00 74 1010.1
20260510010650 60 304 0.9 0.9 0.00 0.00 0.00 72 1009.6
20260510005649 60 303 0.0 0.0 0.00 0.00 0.00 68 1009.3
20260510004644 60 303 0.9 0.9 0.00 0.00 0.00 71 1009.3
20260510003639 60 302 1.7 1.7 0.00 0.00 0.00 75 1009.3
20260510002635 61 303 1.7 1.7 0.00 0.00 0.00 74 1009.0
20260510001634 64 306 1.7 1.7 0.00 0.00 0.00 68 1009.0
20260510000633 68 296 1.7 1.7 0.00 0.00 0.00 55 1009.0
20260509235632 70 281 0.9 1.7 0.00 0.00 0.00 52 1008.6
20260509234631 71 293 0.0 0.9 0.00 0.00 0.00 51 1008.3
20260509233626 72 303 2.6 2.6 0.00 0.00 0.00 48 1008.3
20260509232625 73 286 1.7 1.7 0.00 0.00 0.00 49 1008.3
20260509231625 75 307 2.6 2.6 0.00 0.00 0.00 49 1008.3
20260509230625 75 293 1.7 1.7 0.00 0.00 0.00 49 1008.3
20260509225623 75 274 2.6 2.6 0.00 0.00 0.00 47 1007.9
20260509224620 74 282 0.9 0.9 0.00 0.00 0.00 49 1007.9
20260509223620 74 286 0.9 0.9 0.00 0.00 0.00 50 1008.3
20260509222619 75 290 2.6 2.6 0.00 0.00 0.00 47 1008.3
20260509221617 75 274 3.5 4.3 0.00 0.00 0.00 49 1008.3
20260509220615 74 292 1.7 1.7 0.00 0.00 0.00 55 1008.3
20260509215614 73 278 0.0 0.0 0.00 0.00 0.00 58 1007.9
20260509214614 73 255 1.7 1.7 0.00 0.00 0.00 56 1007.9
20260509213612 73 274 0.9 1.7 0.00 0.00 0.00 55 1007.9
20260509212612 73 279 0.0 0.9 0.00 0.00 0.00 55 1007.9
20260509211611 73 273 2.6 2.6 0.00 0.00 0.00 55 1007.9
20260509210610 73 258 1.7 2.6 0.00 0.00 0.00 55 1007.9
20260509205608 74 274 0.0 0.9 0.00 0.00 0.00 54 1007.6
20260509204605 73 281 0.9 0.9 0.00 0.00 0.00 56 1007.9
20260509203604 73 253 2.6 4.3 0.00 0.00 0.00 55 1007.6
20260509202602 73 291 0.0 0.0 0.00 0.00 0.00 53 1007.9
20260509201558 73 267 1.7 2.6 0.00 0.00 0.00 57 1007.6
20260509200556 73 268 0.9 0.9 0.00 0.00 0.00 58 1007.6
20260509195554 75 316 2.6 2.6 0.00 0.00 0.00 54 1007.9
20260509194554 74 276 1.7 1.7 0.00 0.00 0.00 54 1007.6
20260509193554 75 281 0.9 0.9 0.00 0.00 0.00 54 1007.9
20260509192553 74 262 2.6 2.6 0.00 0.00 0.00 54 1007.9
20260509191548 74 324 1.7 1.7 0.00 0.00 0.00 55 1008.3
20260509190547 74 262 4.3 6.1 0.00 0.00 0.00 53 1008.3
20260509185542 71 268 0.9 0.9 0.00 0.00 0.00 60 1008.3
20260509184537 72 67 2.6 2.6 0.00 0.00 0.00 59 1008.3
20260509183534 71 331 1.7 2.6 0.00 0.00 0.00 61 1008.6
20260509182532 73 256 2.6 5.2 0.00 0.00 0.00 59 1009.0
20260509181528 72 72 4.3 5.2 0.00 0.00 0.00 59 1009.0
20260509180526 70 277 2.6 4.3 0.00 0.00 0.00 63 1009.3
20260509175525 69 272 0.0 0.0 0.00 0.00 0.00 66 1009.3
20260509174524 70 275 0.9 0.9 0.00 0.00 0.00 64 1009.3
20260509173520 69 281 0.9 0.9 0.00 0.00 0.00 63 1009.3
20260509172520 71 249 4.3 5.2 0.00 0.00 0.00 62 1009.6
20260509171517 71 297 1.7 2.6 0.00 0.00 0.00 64 1009.3
20260509170515 69 268 1.7 1.7 0.00 0.00 0.00 67 1009.3
20260509165510 68 297 0.9 0.9 0.00 0.00 0.00 65 1010.1
20260509164508 68 255 1.7 4.3 0.00 0.00 0.00 67 1010.4
20260509163508 67 280 0.0 0.0 0.00 0.00 0.00 68 1010.4
20260509162505 68 276 2.6 2.6 0.00 0.00 0.00 68 1010.1
20260509161504 66 258 2.6 2.6 0.00 0.00 0.00 72 1010.1
20260509160501 68 86 0.9 4.3 0.00 0.00 0.00 68 1010.4
20260509155458 66 309 1.7 1.7 0.00 0.00 0.00 69 1010.4
20260509154456 67 57 3.5 4.3 0.00 0.00 0.00 66 1010.8
20260509153456 65 268 0.9 0.9 0.00 0.00 0.00 69 1011.1
20260509152455 65 13 2.6 2.6 0.00 0.00 0.00 68 1010.8
20260509151454 64 336 1.7 1.7 0.00 0.00 0.00 70 1011.1
20260509150455 63 268 0.9 0.9 0.00 0.00 0.00 69 1010.8
20260509145454 63 263 0.9 1.7 0.00 0.00 0.00 68 1010.8
20260509144453 62 234 1.7 1.7 0.00 0.00 0.00 70 1011.1
20260509143452 62 280 0.9 0.9 0.00 0.00 0.00 70 1011.4
20260509142452 61 261 0.0 0.9 0.00 0.00 0.00 73 1011.1
20260509141449 60 261 0.0 0.0 0.00 0.00 0.00 74 1011.1
20260509140448 60 261 0.0 0.9 0.00 0.00 0.00 74 1011.1
20260509135444 61 262 0.0 0.0 0.00 0.00 0.00 72 1010.4
20260509134439 59 276 0.9 1.7 0.00 0.00 0.00 73 1011.1
20260509133438 59 276 0.0 0.0 0.00 0.00 0.00 72 1011.4
20260509132434 58 279 0.9 0.9 0.00 0.00 0.00 72 1011.8
20260509131434 57 280 0.0 0.0 0.00 0.00 0.00 74 1011.8